Rock Hill, SC

8:29 AM EDT on June 23, 2017 (GMT -0400)
Rock Hill-York County-Bryant

Weather History for KUZA - July, 2013

Change the Weather History Date:

Thursday, July 25, 2013

  Actual Average Record
Temperature  
Mean Temperature 77 °F -  
Max Temperature 84 °F 89 °F 100 °F (2010)
Min Temperature 70 °F 70 °F 62 °F (1957)
Cooling Degree Days 12    
Growing Degree Days 27 (Base 50)    
Moisture  
Dew Point 70 °F    
Average Humidity 79    
Maximum Humidity 100    
Minimum Humidity 58    
Precipitation  
Precipitation 0.01 in - - ()
Sea Level Pressure  
Sea Level Pressure 29.96 in    
Wind  
Wind Speed 4 mph (NE)    
Max Wind Speed 9 mph    
Max Gust Speed -    
Visibility 5 miles    
Events Rain    
Averages and records for this station are not official NWS values.
T = Trace of Precipitation, MM = Missing Value Source: NWS Daily Summary

Daily Weather History Graph

Daily Weather History Graph

Search for Another Location

Airport or City:

Trip Planner

Search our weather history database for the weather conditions in past years. The results will help you decide how hot, cold, wet, or windy it might be!

Date:

Astronomy

Jul. 25, 2013 Rise Set
Actual Time 6:28 AM EDT 8:32 PM EDT
Civil Twilight 6:00 AM EDT 9:00 PM EDT
Nautical Twilight 5:25 AM EDT 9:35 PM EDT
Astronomical Twilight 4:48 AM EDT 10:11 PM EDT
Moon 10:24 PM EDT (7/25) 9:46 AM EDT (7/25)
Length of Visible Light 15h 00m
Length of Day
14h 03m
Waning Gibbous, 88% of the Moon is Illuminated
Jul 25
Waning Gibbous
Jul 29
Last Quarter
Aug 6
New
Aug 14
First Quarter
Aug 20
Full

Hourly Weather History & Observations

Time (EDT) Temp. Heat Index Dew Point Humidity Pressure Visibility Wind Dir Wind Speed Gust Speed Precip Events Conditions
12:40 AM 71.1 °F - 70.0 °F 96% 29.90 in 7.0 mi Variable 3.5 mph - N/A   Partly Cloudy
12:54 AM 71.1 °F - 70.0 °F 96% 29.86 in 6.0 mi Variable 3.5 mph - N/A   Partly Cloudy
1:10 AM 70.0 °F - 70.0 °F 100% 29.90 in 2.0 mi Calm Calm - N/A   Scattered Clouds
1:18 AM 71.1 °F - 70.0 °F 96% 29.90 in 4.0 mi NNW 3.5 mph - N/A   Mostly Cloudy
1:54 AM 70.0 °F - 70.0 °F 100% 29.83 in 7.0 mi NNE 4.6 mph - 0.01 in Rain Light Rain
2:54 AM 70.0 °F - 69.1 °F 97% 29.81 in 7.0 mi NNE 3.5 mph - 0.00 in   Clear
3:54 AM 70.0 °F - 69.1 °F 97% 29.81 in 7.0 mi NNW 4.6 mph - N/A   Clear
4:54 AM 70.0 °F - 70.0 °F 100% 29.83 in 8.0 mi NE 4.6 mph - N/A   Clear
5:08 AM 70.0 °F - 69.1 °F 97% 29.88 in 2.5 mi NNE 4.6 mph - N/A   Clear
5:16 AM 70.0 °F - 69.1 °F 97% 29.88 in 7.0 mi NE 5.8 mph - N/A   Clear
5:54 AM 70.0 °F - 69.1 °F 97% 29.85 in 7.0 mi NNE 5.8 mph - N/A   Clear
6:39 AM 70.0 °F - 69.1 °F 97% 29.90 in 5.0 mi NNE 4.6 mph - N/A   Partly Cloudy
6:54 AM 70.0 °F - 69.1 °F 97% 29.88 in 5.0 mi NNE 4.6 mph - N/A   Mostly Cloudy
7:54 AM 71.1 °F - 69.1 °F 93% 29.90 in 7.0 mi ENE 5.8 mph - N/A   Overcast
8:22 AM 72.0 °F - 69.1 °F 91% 29.94 in 7.0 mi NNE 5.8 mph - N/A   Overcast
8:32 AM 72.0 °F - 69.1 °F 91% 29.94 in 7.0 mi Variable 3.5 mph - N/A   Overcast
8:54 AM 72.0 °F - 69.1 °F 91% 29.91 in 7.0 mi Variable 4.6 mph - N/A   Overcast
9:36 AM 73.0 °F - 69.1 °F 87% 29.95 in 8.0 mi NE 5.8 mph - N/A   Overcast
9:46 AM 73.0 °F - 70.0 °F 90% 29.95 in 8.0 mi NNE 8.1 mph - N/A   Overcast
9:54 AM 73.9 °F - 69.1 °F 85% 29.93 in 8.0 mi NNE 6.9 mph - N/A   Overcast
10:01 AM 75.9 °F - 70.0 °F 82% 29.96 in 9.0 mi NNE 8.1 mph - N/A   Overcast
10:54 AM 75.9 °F - 68.0 °F 76% 29.94 in 10.0 mi NNE 8.1 mph - N/A   Mostly Cloudy
11:12 AM 78.1 °F - 69.1 °F 74% 29.97 in 2.5 mi Variable 5.8 mph - N/A   Haze
11:21 AM 78.1 °F - 69.1 °F 74% 29.97 in 10.0 mi Variable 6.9 mph - N/A   Mostly Cloudy
11:37 AM 78.1 °F - 69.1 °F 74% 29.97 in 10.0 mi NNE 8.1 mph - N/A   Scattered Clouds
11:49 AM 78.8 °F - 69.8 °F 74% 29.97 in 10.0 mi Variable 4.6 mph - N/A   Mostly Cloudy
11:54 AM 78.1 °F - 69.1 °F 74% 29.94 in 10.0 mi Variable 6.9 mph - N/A   Mostly Cloudy
12:21 PM 78.1 °F - 69.1 °F 74% 29.98 in 2.5 mi NNE 9.2 mph - N/A   Haze
12:29 PM 79.0 °F - 70.0 °F 74% 29.98 in 1.0 mi NNE 4.6 mph - N/A   Haze
12:37 PM 78.1 °F - 69.1 °F 74% 29.97 in 0.5 mi Variable 4.6 mph - N/A   Haze
12:42 PM 79.0 °F - 69.1 °F 72% 29.97 in 1.0 mi NNE 6.9 mph - N/A   Haze
12:54 PM 80.1 °F 82.9 °F 69.1 °F 69% 29.93 in 1.0 mi East 4.6 mph - N/A   Haze
1:04 PM 81.0 °F 84.1 °F 69.1 °F 67% 29.97 in 0.5 mi Variable 4.6 mph - N/A   Haze
1:16 PM 79.0 °F - 68.0 °F 69% 29.97 in 1.0 mi Calm Calm - N/A   Haze
1:18 PM 79.0 °F - 68.0 °F 69% 29.97 in 0.5 mi Variable 5.8 mph - N/A   Haze
1:27 PM 81.0 °F 83.8 °F 68.0 °F 65% 29.97 in 1.2 mi ESE 3.5 mph - N/A   Haze
1:34 PM 80.1 °F 82.7 °F 68.0 °F 67% 29.97 in 10.0 mi Variable 3.5 mph - N/A   Mostly Cloudy
1:54 PM 81.0 °F 84.4 °F 70.0 °F 69% 29.94 in 10.0 mi North 6.9 mph - N/A   Mostly Cloudy
2:07 PM 81.0 °F 84.1 °F 69.1 °F 67% 29.98 in 1.2 mi Calm Calm - N/A   Haze
2:17 PM 84.0 °F 89.0 °F 71.1 °F 65% 29.98 in 5.0 mi North 3.5 mph - N/A   Haze
2:47 PM 82.9 °F 87.0 °F 70.0 °F 65% 29.97 in 1.8 mi Variable 3.5 mph - N/A   Haze
2:54 PM 84.0 °F 89.0 °F 71.1 °F 65% 29.94 in 4.0 mi North 5.8 mph - N/A   Haze
3:08 PM 82.0 °F 85.9 °F 70.0 °F 67% 29.97 in 1.5 mi NNE 4.6 mph - N/A   Haze
3:26 PM 82.9 °F 87.0 °F 70.0 °F 65% 29.97 in 10.0 mi NNE 6.9 mph - N/A   Mostly Cloudy
3:36 PM 82.0 °F 85.5 °F 69.1 °F 65% 29.97 in 2.5 mi NE 4.6 mph - N/A   Haze
3:45 PM 82.0 °F 85.5 °F 69.1 °F 65% 29.97 in 10.0 mi ENE 5.8 mph - N/A   Scattered Clouds
3:54 PM 81.0 °F 84.1 °F 69.1 °F 67% 29.93 in 10.0 mi Variable 5.8 mph - N/A   Partly Cloudy
4:38 PM 84.0 °F 88.4 °F 70.0 °F 63% 29.96 in 1.8 mi Variable 3.5 mph - N/A   Haze
4:52 PM 84.2 °F 88.4 °F 69.8 °F 62% 29.96 in 10.0 mi NNE 8.1 mph - N/A   Clear
4:54 PM 82.9 °F 87.0 °F 70.0 °F 65% 29.93 in 10.0 mi NNE 9.2 mph - N/A   Clear
5:03 PM 84.0 °F 88.4 °F 70.0 °F 63% 29.97 in 2.0 mi NNE 8.1 mph - N/A   Haze
5:13 PM 82.9 °F 86.5 °F 69.1 °F 63% 29.96 in 10.0 mi Variable 3.5 mph - N/A   Clear
5:54 PM 84.0 °F 87.0 °F 68.0 °F 58% 29.92 in 10.0 mi Calm Calm - N/A   Clear
6:00 PM 84.0 °F 87.8 °F 69.1 °F 61% 29.96 in 1.5 mi Variable 3.5 mph - N/A   Haze
6:08 PM 82.9 °F 87.0 °F 70.0 °F 65% 29.96 in 0.5 mi NE 4.6 mph - N/A   Haze
6:20 PM 82.0 °F 85.5 °F 69.1 °F 65% 29.97 in 1.0 mi NE 3.5 mph - N/A   Haze
6:30 PM 81.0 °F 84.1 °F 69.1 °F 67% 29.97 in 10.0 mi Variable 3.5 mph - N/A   Clear
6:54 PM 80.1 °F 83.2 °F 70.0 °F 71% 29.94 in 3.0 mi Calm Calm - N/A   Haze
7:04 PM 80.1 °F 83.2 °F 70.0 °F 71% 29.97 in 2.5 mi Calm Calm - N/A   Haze
7:16 PM 78.1 °F - 71.1 °F 79% 29.98 in 6.0 mi ENE 3.5 mph - N/A   Haze
7:26 PM 79.0 °F - 70.0 °F 74% 29.98 in 0.8 mi Calm Calm - N/A   Haze
7:36 PM 80.1 °F 83.6 °F 71.1 °F 74% 29.99 in 4.0 mi Calm Calm - N/A   Haze
7:48 PM 80.6 °F 84.6 °F 71.6 °F 74% 29.99 in 1.8 mi Calm Calm - N/A   Haze
7:54 PM 80.1 °F 83.6 °F 71.1 °F 74% 29.95 in 1.5 mi East 3.5 mph - N/A   Haze
8:04 PM 79.0 °F - 71.1 °F 77% 29.99 in 2.5 mi East 3.5 mph - N/A   Haze
8:11 PM 79.0 °F - 70.0 °F 74% 29.99 in 10.0 mi East 3.5 mph - N/A   Clear
8:54 PM 73.9 °F - 70.0 °F 87% 29.98 in 10.0 mi Calm Calm - N/A   Clear
9:54 PM 73.0 °F - 71.1 °F 93% 30.00 in 10.0 mi Calm Calm - N/A   Clear
10:02 PM 72.0 °F - 70.0 °F 93% 30.03 in 0.8 mi Calm Calm - N/A   Clear
10:08 PM 73.0 °F - 70.0 °F 90% 30.03 in 2.0 mi East 3.5 mph - N/A   Clear
10:26 PM 73.9 °F - 71.1 °F 91% 30.04 in 10.0 mi Calm Calm - N/A   Clear
10:34 PM 73.0 °F - 70.0 °F 90% 30.04 in 1.8 mi Calm Calm - N/A   Clear
10:46 PM 72.0 °F - 70.0 °F 93% 30.04 in 3.0 mi Calm Calm - N/A   Clear
10:54 PM 73.0 °F - 70.0 °F 90% 30.01 in 3.0 mi Calm Calm - N/A   Clear
11:13 PM 72.0 °F - 70.0 °F 93% 30.05 in 1.0 mi Calm Calm - N/A   Clear
11:18 PM 72.0 °F - 70.0 °F 93% 30.04 in 3.0 mi Calm Calm - N/A   Clear
11:43 PM 72.0 °F - 70.0 °F 93% 30.05 in 1.2 mi Calm Calm - N/A   Clear
11:50 PM 71.6 °F - 69.8 °F 94% 30.05 in 3.0 mi Calm Calm - N/A   Clear
11:54 PM 72.0 °F - 70.0 °F 93% 30.02 in 2.5 mi Calm Calm - N/A   Clear